Latest Weather Observations for Nowra

IDN60901

Issued at 4:15 pm EDT Tuesday 21 October 2014 (issued every 10 minutes, with the page automatically refreshed every 10 minutes)

About weather observations | Map of Canberra area stations | Latest observations for Canberra area | Other Formats
Station Details ID: 068072 Name: NOWRA RAN AIR STATION AWS Lat: -34.95 Lon: 150.54 Height: 109.0 m
Data from the previous 72 hours. | See also: Recent months at Nowra
Date/Time
EDT
Tmp

°C
App
Tmp
°C
Dew
Point
°C
Rel
Hum
%
Delta-T

°C
Wind Press
QNH
hPa
Press
MSL
hPa
Rain
since
9 am
mm
Dir
 
Spd
km/h
Gust
km/h
Spd
kts
Gust
kts
21/04:00pm 16.2 11.9 6.9 54 4.6 NE 19 24 10 13 1030.2 - 0.0
21/03:30pm 16.5 12.7 7.7 56 4.4 NNE 17 24 9 13 1030.4 - 0.0
21/03:00pm 16.7 13.5 8.4 58 4.2 NE 15 26 8 14 1030.7 1030.6 0.0
21/02:30pm 16.2 12.1 7.9 58 4.2 ENE 19 24 10 13 1030.9 - 0.0
21/02:00pm 16.3 13.0 8.0 58 4.2 NE 15 24 8 13 1031.3 - 0.0
21/01:30pm 16.6 12.8 7.5 55 4.6 NE 17 22 9 12 1031.7 - 0.0
21/01:00pm 17.1 14.0 8.8 58 4.3 E 15 24 8 13 1032.1 - 0.0
21/12:30pm 16.6 14.1 8.3 58 4.2 E 11 24 6 13 1032.3 - 0.0
21/12:00pm 17.4 13.6 7.5 52 5.0 NE 17 22 9 12 1032.6 1032.5 0.0
21/11:30am 17.2 13.1 6.4 49 5.3 E 17 26 9 14 1032.8 - 0.0
21/11:00am 16.6 13.6 7.8 56 4.5 NE 13 28 7 15 1033.0 - 0.0
21/10:30am 15.7 13.2 8.4 62 3.7 NNE 11 15 6 8 1033.3 - 0.0
21/10:00am 15.5 13.2 9.0 65 3.3 ENE 11 15 6 8 1033.4 - 0.0
21/09:30am 15.0 13.1 8.9 67 3.1 S 9 13 5 7 1033.1 - 0.0
21/09:00am 14.2 12.4 9.6 74 2.4 WSW 9 9 5 5 1032.9 1032.9 0.2
21/08:30am 13.4 12.1 9.8 79 1.9 NW 7 9 4 5 1032.8 - 0.2
21/08:00am 13.1 11.4 9.9 81 1.6 N 9 11 5 6 1032.7 - 0.2
21/07:30am 12.8 12.7 9.3 79 1.8 CALM 0 0 0 0 1032.2 - 0.2
21/07:00am 12.6 11.1 9.1 79 1.8 SSW 7 11 4 6 1031.9 - 0.2
21/06:30am 12.4 10.1 8.9 79 1.8 SSW 11 13 6 7 1031.7 - 0.2
21/05:30am 12.3 10.0 9.1 81 1.6 SSW 11 15 6 8 1031.3 - 0.2
21/05:00am 12.1 10.0 9.7 85 1.2 SW 11 15 6 8 1031.3 - 0.2
21/04:30am 12.1 10.8 9.8 86 1.2 SW 7 9 4 5 1031.4 - 0.2
21/04:00am 12.2 10.9 9.8 85 1.2 SW 7 9 4 5 1031.5 - 0.2
21/03:30am 12.3 11.1 9.5 83 1.4 SSW 6 7 3 4 1031.7 - 0.2
21/03:00am 12.5 10.7 9.5 82 1.5 SSW 9 11 5 6 1031.8 1031.7 0.2
21/02:30am 12.5 10.8 9.7 83 1.4 SSW 9 13 5 7 1031.9 - 0.2
21/02:00am 12.6 12.6 9.8 83 1.4 CALM 0 0 0 0 1032.0 - 0.2
21/01:30am 12.6 11.8 9.6 82 1.5 S 4 7 2 4 1032.2 - 0.2
21/01:00am 12.6 12.3 10.0 84 1.3 S 2 7 1 4 1032.3 - 0.2
21/12:30am 12.7 11.4 9.9 83 1.4 S 7 9 4 5 1032.4 - 0.2
21/12:00am 12.8 12.5 10.0 83 1.4 SSW 2 7 1 4 1032.6 1032.5 0.2
 
Date/Time
EDT
Tmp

°C
App
Tmp
°C
Dew
Point
°C
Rel
Hum
%
Delta-T

°C
Wind Press
QNH
hPa
Press
MSL
hPa
Rain
since
9 am
mm
Dir
 
Spd
km/h
Gust
km/h
Spd
kts
Gust
kts
20/11:30pm 12.7 12.0 10.2 85 1.3 SSW 4 7 2 4 1032.6 - 0.2
20/11:00pm 12.8 11.6 10.3 85 1.3 WSW 7 9 4 5 1032.7 - 0.2
20/10:30pm 12.6 11.7 10.5 87 1.1 WSW 6 9 3 5 1032.6 - 0.2
20/10:00pm 12.5 11.6 10.7 89 0.9 SW 6 9 3 5 1032.7 - 0.2
20/09:30pm 12.7 11.8 10.8 88 1.0 S 6 7 3 4 1032.7 - 0.2
20/09:00pm 12.9 11.4 10.6 86 1.2 S 9 13 5 7 1032.6 1032.5 0.2
20/08:30pm 12.8 11.9 10.7 87 1.1 ESE 6 11 3 6 1032.4 - 0.2
20/08:00pm 12.9 10.7 10.8 87 1.1 SSW 13 17 7 9 1032.0 - 0.2
20/07:30pm 13.1 10.9 10.8 86 1.2 SSW 13 15 7 8 1031.7 - 0.2
20/07:00pm 13.3 11.5 10.8 85 1.3 S 11 19 6 10 1031.6 - 0.2
20/06:30pm 13.5 12.0 10.7 83 1.5 SSW 9 11 5 6 1031.2 - 0.2
20/06:00pm 13.2 10.2 10.6 84 1.4 S 17 24 9 13 1031.2 1031.1 0.2
20/05:30pm 15.0 12.3 8.9 67 3.1 S 13 17 7 9 1030.9 - 0.2
20/05:00pm 15.3 11.9 7.6 60 3.8 SSE 15 20 8 11 1030.9 - 0.2
20/04:30pm 15.1 11.7 9.2 68 3.0 S 17 20 9 11 1030.8 - 0.2
20/04:00pm 14.8 11.6 9.8 72 2.6 S 17 26 9 14 1030.9 - 0.2
20/03:30pm 14.5 11.3 11.3 81 1.7 SSE 19 24 10 13 1031.0 - 0.2
20/03:15pm 14.3 11.6 11.8 85 1.4 S 17 22 9 12 1030.9 - 0.2
20/03:00pm 14.0 11.0 12.7 92 0.7 SSE 20 28 11 15 1031.0 1030.9 0.2
20/02:56pm 13.9 10.4 12.1 89 1.0 SSE 22 28 12 15 1031.1 - 0.0
20/02:30pm 14.2 10.5 11.5 84 1.4 SSE 22 32 12 17 1031.0 - 0.0
20/02:09pm 14.1 10.2 12.0 87 1.1 S 24 35 13 19 1031.1 - 0.0
20/02:00pm 15.5 12.0 12.1 80 1.9 S 22 32 12 17 1031.1 - 0.0
20/01:30pm 15.3 12.8 12.2 82 1.7 SSE 17 24 9 13 1031.0 - 0.0
20/01:08pm 14.5 10.7 12.4 87 1.1 SSE 24 35 13 19 1031.2 - 0.0
20/01:00pm 14.9 10.9 11.9 82 1.6 SSE 24 30 13 16 1031.2 - 0.0
20/12:49pm 14.4 9.8 12.3 87 1.1 SSE 28 37 15 20 1031.3 - 0.0
20/12:30pm 14.7 11.9 12.6 87 1.2 SSE 19 24 10 13 1031.3 - 0.0
20/12:00pm 14.1 9.7 13.0 93 0.6 S 28 41 15 22 1031.5 1031.4 0.0
20/11:51am 14.2 10.3 12.2 88 1.1 SSE 24 39 13 21 1031.5 - 0.0
20/11:30am 14.9 11.4 12.2 84 1.5 S 22 28 12 15 1031.5 - 0.0
20/11:00am 14.4 11.4 12.6 89 1.0 SSE 20 32 11 17 1031.4 - 0.0
20/10:50am 14.5 10.9 12.0 85 1.4 S 22 33 12 18 1031.4 - 0.0
20/10:38am 14.3 9.5 11.8 85 1.4 S 28 46 15 25 1031.4 - 0.0
20/10:30am 14.6 11.5 11.6 82 1.6 S 19 35 10 19 1031.4 - 0.0
20/10:21am 15.1 12.0 11.5 79 1.9 S 19 26 10 14 1031.3 - 0.0
20/10:00am 15.4 10.5 10.0 70 2.8 S 26 39 14 21 1031.0 - 0.0
20/09:30am 15.6 10.6 9.5 67 3.2 S 26 37 14 20 1030.7 - 0.0
20/09:00am 15.7 9.8 9.1 65 3.4 SSE 30 43 16 23 1030.1 1030.0 0.0
20/08:36am 15.8 9.5 9.0 64 3.5 S 32 50 17 27 1029.7 - 0.0
20/08:30am 15.8 10.3 9.0 64 3.5 S 28 39 15 21 1029.6 - 0.0
20/08:00am 15.8 10.8 9.7 67 3.2 SSE 26 46 14 25 1029.1 - 0.0
20/07:30am 16.0 11.0 9.7 66 3.3 SSE 26 35 14 19 1028.4 - 0.0
20/07:00am 16.1 11.3 10.4 69 3.0 SSE 26 39 14 21 1027.7 - 0.0
20/06:30am 16.1 12.5 10.4 69 3.0 SSE 20 28 11 15 1027.2 - 0.0
20/06:00am 16.1 12.2 10.8 71 2.8 S 22 35 12 19 1026.5 1026.4 0.0
20/05:30am 16.6 13.0 11.9 74 2.6 SSE 22 35 12 19 1025.8 - 0.0
20/05:00am 16.7 12.5 12.5 76 2.3 S 26 41 14 22 1025.0 - 0.0
20/04:30am 17.0 11.6 12.9 77 2.3 SSE 33 52 18 28 1024.3 - 0.0
20/04:20am 17.2 11.1 12.9 76 2.4 SSE 37 56 20 30 1024.2 - 0.0
20/04:00am 17.7 11.5 12.8 73 2.7 S 37 48 20 26 1023.4 - 0.0
20/03:34am 19.5 13.1 12.0 62 4.2 S 37 46 20 25 1022.2 - 0.0
20/03:30am 18.5 15.7 10.1 58 4.5 SW 15 37 8 20 1021.9 - 0.0
20/03:00am 20.4 17.3 8.7 47 6.2 NW 15 20 8 11 1020.7 1020.6 0.0
20/02:30am 20.9 16.5 8.9 46 6.4 NW 22 26 12 14 1020.5 - 0.0
20/02:00am 21.3 17.3 9.2 46 6.5 NNW 20 28 11 15 1020.8 - 0.0
20/01:30am 19.0 17.9 11.8 63 4.0 N 9 11 5 6 1021.4 - 0.0
20/01:00am 19.7 18.3 10.9 57 4.8 WNW 9 11 5 6 1021.5 - 0.0
20/12:30am 21.7 20.4 9.9 47 6.4 NW 7 9 4 5 1021.3 - 0.0
20/12:00am 21.3 18.6 10.5 50 5.9 N 15 17 8 9 1021.0 1020.9 0.0
 
Date/Time
EDT
Tmp

°C
App
Tmp
°C
Dew
Point
°C
Rel
Hum
%
Delta-T

°C
Wind Press
QNH
hPa
Press
MSL
hPa
Rain
since
9 am
mm
Dir
 
Spd
km/h
Gust
km/h
Spd
kts
Gust
kts
19/11:30pm 20.7 18.2 11.1 54 5.3 NNW 15 17 8 9 1021.2 - 0.0
19/11:00pm 21.8 18.9 10.9 50 6.0 NNW 17 20 9 11 1021.4 - 0.0
19/10:30pm 21.4 18.9 12.3 56 5.2 NNW 17 22 9 12 1021.5 - 0.0
19/10:00pm 17.1 18.5 15.4 90 1.0 SE 2 9 1 5 1021.6 - 0.0
19/09:30pm 18.0 19.8 15.4 85 1.5 CALM 0 0 0 0 1021.6 - 0.0
19/09:00pm 18.1 20.0 15.7 86 1.4 CALM 0 0 0 0 1021.2 1021.1 0.0
19/08:30pm 18.8 20.8 16.0 84 1.7 CALM 0 0 0 0 1021.0 - 0.0
19/08:00pm 17.6 19.2 15.0 85 1.5 CALM 0 0 0 0 1020.9 - 0.0
19/07:30pm 18.8 20.5 15.1 79 2.2 CALM 0 0 0 0 1020.4 - 0.0
19/07:00pm 20.6 21.8 14.9 70 3.4 SE 2 7 1 4 1020.3 - 0.0
19/06:30pm 21.8 22.1 14.9 65 4.1 SE 7 9 4 5 1020.2 - 0.0
19/06:00pm 22.8 22.6 14.6 60 4.8 SE 9 13 5 7 1020.0 1019.9 0.0
19/05:30pm 23.9 23.6 14.3 55 5.7 ESE 9 13 5 7 1020.0 - 0.0
19/05:00pm 24.7 23.1 13.9 51 6.4 ENE 15 17 8 9 1020.0 - 0.0
19/04:30pm 24.7 22.8 14.2 52 6.2 E 17 22 9 12 1020.1 - 0.0
19/04:00pm 25.6 23.1 14.1 49 6.8 E 20 26 11 14 1020.1 - 0.0
19/03:30pm 26.5 24.5 13.9 45 7.5 E 17 22 9 12 1020.4 - 0.0
19/03:00pm 26.8 24.6 13.2 43 8.0 ENE 17 22 9 12 1020.7 1020.6 0.0
19/02:30pm 26.8 23.9 12.4 40 8.4 ENE 19 24 10 13 1021.0 - 0.0
19/02:00pm 27.6 25.2 12.8 40 8.7 N 17 24 9 13 1021.5 - 0.0
19/01:30pm 28.0 24.9 8.8 30 10.6 N 15 20 8 11 1022.0 - 0.0
19/01:00pm 27.3 25.2 8.2 30 10.4 N 9 15 5 8 1022.2 - 0.0
19/12:30pm 26.8 23.9 9.6 34 9.5 NNW 15 20 8 11 1022.5 - 0.0
19/12:00pm 25.4 22.4 7.5 32 9.5 N 13 20 7 11 1022.9 1022.8 0.0
19/11:30am 25.3 23.3 10.0 38 8.5 NNW 11 20 6 11 1023.7 - 0.0
19/11:00am 23.5 20.2 9.5 41 7.6 NNW 17 22 9 12 1024.3 - 0.0
19/10:30am 22.5 19.6 9.6 44 7.0 NNW 15 22 8 12 1024.6 - 0.0
19/10:00am 20.8 16.9 9.4 48 6.1 NNW 20 28 11 15 1025.1 - 0.0
19/09:30am 19.5 15.7 9.7 53 5.2 NNW 20 28 11 15 1025.4 - 0.0
19/09:00am 18.0 13.9 8.8 55 4.8 NNW 20 30 11 16 1025.6 1025.5 0.0
19/08:30am 16.7 12.8 8.7 59 4.1 NNW 19 24 10 13 1025.7 - 0.0
19/08:00am 15.4 11.9 8.9 65 3.3 NNW 17 22 9 12 1025.5 - 0.0
19/07:30am 14.1 11.0 8.9 71 2.6 NW 15 20 8 11 1025.4 - 0.0
19/07:00am 12.5 9.7 8.6 77 2.0 NNW 13 17 7 9 1025.1 - 0.0
19/06:30am 10.9 8.9 8.5 85 1.2 NW 9 11 5 6 1025.0 - 0.0
19/06:00am 10.7 8.3 8.6 87 1.0 NW 11 15 6 8 1025.0 1024.9 0.0
19/05:30am 11.1 9.1 8.7 85 1.2 NNW 9 13 5 7 1025.1 - 0.0
19/05:00am 10.7 8.7 8.5 86 1.1 NW 9 11 5 6 1025.1 - 0.0
19/04:30am 11.0 8.2 8.6 85 1.2 NW 13 15 7 8 1025.1 - 0.0
19/04:00am 10.7 8.1 9.5 92 0.6 WNW 13 17 7 9 1025.4 - 0.0
19/03:30am 9.1 8.8 8.6 97 0.2 CALM 0 0 0 0 1025.7 - 0.0
19/03:00am 9.1 8.0 8.5 96 0.3 NNW 4 7 2 4 1025.9 1025.8 0.0
19/02:30am 10.1 9.8 8.5 90 0.8 CALM 0 0 0 0 1026.0 - 0.0
19/02:00am 11.3 9.1 9.2 87 1.1 WNW 11 13 6 7 1026.1 - 0.0
19/01:30am 10.9 9.1 9.5 91 0.7 NW 9 11 5 6 1026.2 - 0.0
19/01:00am 11.0 9.7 9.8 92 0.6 NW 7 9 4 5 1026.9 - 0.0
19/12:30am 10.9 9.3 10.1 95 0.4 NW 9 11 5 6 1027.0 - 0.0
19/12:00am 10.2 10.2 9.7 97 0.3 CALM 0 0 0 0 1027.5 1027.4 0.0
 
Date/Time
EDT
Tmp

°C
App
Tmp
°C
Dew
Point
°C
Rel
Hum
%
Delta-T

°C
Wind Press
QNH
hPa
Press
MSL
hPa
Rain
since
9 am
mm
Dir
 
Spd
km/h
Gust
km/h
Spd
kts
Gust
kts
18/11:30pm 10.3 8.4 9.2 93 0.5 W 9 9 5 5 1027.5 - 0.0
18/11:00pm 10.8 10.7 9.6 92 0.6 CALM 0 0 0 0 1027.5 - 0.0
18/10:30pm 11.2 11.2 9.9 92 0.7 CALM 0 0 0 0 1027.6 - 0.0
18/10:00pm 10.4 9.8 8.8 90 0.8 W 2 6 1 3 1027.6 - 0.0
18/09:30pm 11.0 9.5 9.3 89 0.9 W 7 9 4 5 1027.7 - 0.0
18/09:00pm 11.6 11.4 9.0 84 1.3 CALM 0 0 0 0 1027.5 1027.4 0.0
18/08:30pm 13.1 12.9 9.2 77 2.0 CALM 0 0 0 0 1027.1 - 0.0
18/08:00pm 14.4 14.2 9.0 70 2.8 CALM 0 0 0 0 1026.6 - 0.0
18/07:30pm 15.2 13.7 9.1 67 3.1 E 7 9 4 5 1026.4 - 0.0
18/07:00pm 16.2 14.3 9.2 63 3.6 E 9 15 5 8 1026.2 - 0.0
18/06:30pm 17.1 14.0 9.0 59 4.2 ENE 15 20 8 11 1025.9 - 0.0
18/06:00pm 17.7 14.3 9.3 58 4.4 ENE 17 28 9 15 1025.7 1025.6 0.0
18/05:30pm 18.0 14.1 9.6 58 4.4 ENE 20 26 11 14 1025.8 - 0.0
18/05:00pm 18.5 14.3 9.8 57 4.6 NE 22 30 12 16 1025.6 - 0.0
18/04:30pm 18.9 14.6 9.4 54 5.0 ENE 22 30 12 16 1025.8 - 0.0

Latest Capital City Observations: Canberra | Sydney | Melbourne | Brisbane | Adelaide | Perth | Hobart | Darwin

Other Formats:

Comma delimited format used in spreadsheet applications
http://www.bom.gov.au/fwo/IDN60903/IDN60903.94750.axf

JavaScript Object Notation format (JSON) in row-major order
http://www.bom.gov.au/fwo/IDN60903/IDN60903.94750.json